Location: Walton
(43.6794°N, 81.3017°W)
Time: 01:05:48
(UTC+00:00)

Cosmos 2180 Rocket - Pass Details

Date: 07 March 2026
Orbit: 952 x 1004 km, 82.9° (Epoch: 14 April)

Event Time Altitude Azimuth Distance (km) Brightness Sun altitude
Rises 23:39:24 0° 352° (N) 3,648 7.6 -4.0°
Reaches altitude 10° 23:41:55 10° 353° (N) 2,694 6.9 -4.5°
Maximum altitude 23:48:05 85° 81° (E) 961 4.5 -5.6°
Drops below altitude 10° 23:54:12 10° 172° (S) 2,672 6.7 -6.7°
Sets 23:56:41 0° 173° (S) 3,616 7.4 -7.1°
